Home   Weather   Township of Washington   Past weeks
Flag for USA

Past Weather in Township of Washington, Kansas, USA — Yesterday and Last 2 Weeks

Now
56 °F

Overcast.


Feels Like: 54 °F
Forecast: 63 / 47 °F
Wind: 9 mph from North

Location: Hebron Municipal Airport

Current Time: May 19, 2019 at 1:37:29 am

Latest Report: May 19, 2019 at 12:55 am


Visibility: 10 mi

Pressure: 29.67 "Hg

Humidity: 83%

Dew Point: 51 °F

Location of Township of WashingtonLocation

Past Weather in Township of Washington — Graph

°F

Township of Washington Temperature Yesterday

Maximum temperature yesterday: 67 °F (at 12:15 am)
Minimum temperature yesterday: 57 °F (at 11:55 pm)
Average temperature yesterday: 63 °F

High & Low Weather Summary for the Past Weeks

 TemperatureHumidityPressure
High93 °F (May 16, 4:35 pm)99% (May 4, 7:15 am)30.26 "Hg (May 4, 7:15 am)
Low37 °F (May 10, 5:35 am)25% (May 14, 5:55 pm)29.49 "Hg (May 18, 1:35 am)
Average61 °F73%29.87 "Hg
* Reported May 4 12:35 am — May 19 12:15 am, Township of Washington. Weather by CustomWeather, © 2019

Note: Actual official high and low records may vary slightly from our data, if they occured in-between our weather recording intervals... More about our weather records

Advertising

Township of Washington Weather History for the Previous 24 Hours

Scroll right to see more
 ConditionsComfort  
Time TempWeatherWind HumidityBarometerVisibility
12:15 am
Sun, May 19
58 °FMostly cloudy.7 mph92%29.67 "Hg10 mi
11:55 pm
Sat, May 18
57 °FLight rain. Mostly cloudy.7 mph91%29.66 "Hg7 mi
11:35 pm58 °FHeavy rain. Overcast.5 mph90%29.67 "Hg7 mi
11:15 pm59 °FOvercast.14 mph85%29.66 "Hg10 mi
10:55 pm61 °FLight rain. Mostly cloudy.No wind95%29.65 "Hg10 mi
10:35 pm61 °FThunderstorms. Mostly cloudy.5 mph94%29.65 "Hg7 mi
10:15 pm61 °FThundershowers. Mostly cloudy.3 mph92%29.65 "Hg10 mi
9:55 pm62 °FLight rain. Mostly cloudy.3 mph88%29.64 "Hg10 mi
9:35 pm62 °FLight rain. Mostly cloudy.No wind88%29.63 "Hg10 mi
9:15 pm62 °FOvercast.No wind85%29.63 "Hg10 mi
8:55 pm62 °FPartly cloudy.3 mph85%29.63 "Hg10 mi
8:35 pm62 °FScattered clouds.5 mph82%29.60 "Hg10 mi
8:15 pm63 °FDrizzle. Cloudy.7 mph85%29.59 "Hg10 mi
7:55 pm63 °FMore clouds than sun.5 mph85%29.60 "Hg10 mi
7:15 pm64 °FCloudy.5 mph82%29.62 "Hg10 mi
6:55 pm64 °FBroken clouds.3 mph80%29.61 "Hg10 mi
6:35 pm64 °FOvercast.3 mph80%29.61 "Hg10 mi
6:15 pm64 °FBroken clouds.No wind81%29.60 "Hg10 mi
5:55 pm64 °FSunny.No wind83%29.59 "Hg10 mi
5:35 pm64 °FBroken clouds.3 mph83%29.56 "Hg10 mi
5:15 pm64 °FBroken clouds.7 mph81%29.57 "Hg10 mi
4:55 pm64 °FBroken clouds.10 mph82%29.58 "Hg10 mi
4:35 pm65 °FMore clouds than sun.13 mph84%29.60 "Hg10 mi
4:15 pm66 °FThundershowers. Cloudy.8 mph80%29.61 "Hg10 mi
3:35 pm65 °FCloudy.6 mph78%29.63 "Hg10 mi
2:55 pm65 °FMostly cloudy.3 mph77%29.60 "Hg10 mi
2:35 pm64 °FScattered clouds.3 mph77%29.61 "Hg10 mi
2:15 pm64 °FSunny.3 mph78%29.61 "Hg10 mi
1:55 pm64 °FSunny.3 mph76%29.62 "Hg10 mi
1:35 pm64 °FSunny.3 mph77%29.63 "Hg10 mi
1:15 pm63 °FSunny.3 mph77%29.61 "Hg10 mi
12:55 pm63 °FSunny.5 mph79%29.61 "Hg10 mi
12:35 pm64 °FSunny.8 mph79%29.59 "Hg10 mi
12:15 pm64 °FSunny.8 mph77%29.61 "Hg10 mi
11:55 am65 °FSunny.9 mph75%29.61 "Hg10 mi
11:35 am65 °FScattered clouds.7 mph76%29.64 "Hg10 mi
10:55 am64 °FOvercast.6 mph79%29.64 "Hg10 mi
10:35 am64 °FOvercast.3 mph79%29.65 "Hg10 mi
10:15 am63 °FOvercast.No wind80%29.65 "Hg10 mi
9:55 am63 °FOvercast.5 mph80%29.63 "Hg10 mi
9:35 am63 °FOvercast.5 mph80%29.62 "Hg10 mi
9:15 am62 °FOvercast.5 mph81%29.62 "Hg10 mi
8:55 am63 °FPartly sunny.7 mph81%29.62 "Hg10 mi
8:35 am64 °FScattered clouds.9 mph83%29.62 "Hg10 mi
8:15 am63 °FSunny.7 mph83%29.62 "Hg10 mi
7:55 am62 °FSunny.7 mph84%29.61 "Hg10 mi
7:35 am62 °FSunny.3 mph85%29.61 "Hg10 mi
7:15 am60 °FSunny.5 mph87%29.61 "Hg10 mi
6:55 am60 °FSunny.No wind89%29.60 "Hg10 mi
6:35 am61 °FSunny.5 mph83%29.59 "Hg10 mi
6:15 am61 °FScattered clouds.12 mph84%29.60 "Hg10 mi
5:55 am62 °FPassing clouds.7 mph80%29.55 "Hg10 mi
5:35 am64 °FClear.8 mph76%29.62 "Hg10 mi
5:15 am63 °FPassing clouds.8 mph77%29.57 "Hg10 mi
4:55 am64 °FPartly cloudy.16 mph78%29.52 "Hg10 mi
4:35 am63 °FOvercast.10 mph83%29.59 "Hg10 mi
4:15 am64 °FMostly cloudy.9 mph81%29.60 "Hg10 mi
3:55 am63 °FMostly cloudy.15 mph83%29.57 "Hg10 mi
3:35 am64 °FLight rain. Overcast.10 mph80%29.56 "Hg10 mi
2:55 am65 °FThundershowers. Mostly cloudy.17 mph81%29.62 "Hg10 mi
2:35 am64 °FLight rain. Overcast.17 mph89%29.61 "Hg10 mi
2:15 am64 °FLight rain. Mostly cloudy.9 mph86%29.62 "Hg10 mi
1:55 am65 °FThundershowers. Partly cloudy.15 mph81%29.61 "Hg5 mi
1:35 am66 °FPassing clouds.23 mph78%29.49 "Hg10 mi
Weather by CustomWeather, © 2019

See weather overview